QPF
0.00 0.00 0.00 0.00 0.00 0.00 0.01 0.00 0.00 0.00 0.00 0.00 0.00 0.00 0.00 0.00 0.00 0.00 0.00 0.00 0.00 0.00 0.01 0.01 0.02 0.01 0.02 0.01 0.01 0.01 0.01 0.01 0.01 0.01 0.01 0.01 0.01 0.00 0.01 0.01 0.01 0.01 0.01 0.01 0.01 0.01 0.01 0.01 0.01
0.00 0.00 0.00 0.00 0.00 0.00 0.00 0.00 0.00 0.00 0.00 0.00 0.00 0.00 0.00 0.00 0.00 0.00 0.00 0.00 0.00 0.00 0.00 0.01 0.01 0.02 0.02 0.01 0.01 0.01 0.01 0.01 0.01 0.01 0.01 0.01 0.01 0.01 0.01 0.01 0.01 0.01 0.01 0.01 0.01 0.01 0.01 0.00 0.00
0.00 0.01 0.01 0.00 0.00 0.00 0.00 0.00 0.00 0.00 0.00 0.00 0.00 0.00 0.00 0.00 0.00 0.00 0.00 0.00 0.00 0.00 0.00 0.01 0.01 0.02 0.01 0.01 0.01 0.01 0.01 0.01 0.01 0.01 0.01 0.01 0.01 0.01 0.01 0.01 0.01 0.01 0.01 0.01 0.01 0.01 0.01 0.00 0.00
0.01 0.02 0.01 0.00 0.00 0.00 0.00 0.00 0.00 0.00 0.00 0.00 0.00 0.00 0.00 0.00 0.00 0.00 0.00 0.00 0.00 0.00 0.01 0.01 0.02 0.01 0.01 0.01 0.01 0.01 0.01 0.01 0.01 0.01 0.01 0.01 0.01 0.01 0.01 0.01 0.00 0.01 0.01 0.01 0.01 0.00 0.00 0.00 0.00
0.02 0.02 0.01 0.00 0.00 0.00 0.00 0.00 0.00 0.00 0.00 0.00 0.00 0.00 0.00 0.00 0.00 0.00 0.00 0.00 0.00 0.00 0.01 0.01 0.02 0.01 0.01 0.01 0.01 0.01 0.01 0.01 0.02 0.01 0.01 0.01 0.01 0.01 0.01 0.01 0.01 0.01 0.01 0.01 0.00 0.00 0.00 0.00 0.00
0.03 0.02 0.01 0.00 0.00 0.00 0.00 0.00 0.00 0.00 0.00 0.00 0.00 0.00 0.00 0.01 0.00 0.00 0.00 0.00 0.00 0.00 0.01 0.01 0.01 0.01 0.01 0.01 0.01 0.01 0.01 0.01 0.02 0.02 0.01 0.01 0.01 0.01 0.01 0.01 0.01 0.01 0.01 0.01 0.00 0.00 0.00 0.00 0.00
0.03 0.02 0.01 0.00 0.00 0.00 0.00 0.00 0.00 0.00 0.00 0.00 0.00 0.00 0.00 0.01 0.01 0.00 0.00 0.00 0.00 0.01 0.01 0.01 0.01 0.01 0.01 0.01 0.01 0.01 0.01 0.01 0.02 0.02 0.02 0.01 0.01 0.02 0.01 0.01 0.01 0.01 0.01 0.01 0.00 0.00 0.00 0.00 0.00
0.03 0.01 0.01 0.00 0.00 0.00 0.00 0.00 0.00 0.00 0.00 0.00 0.00 0.00 0.00 0.01 0.01 0.01 0.01 0.01 0.01 0.01 0.01 0.01 0.01 0.01 0.01 0.01 0.01 0.01 0.01 0.01 0.02 0.02 0.02 0.02 0.01 0.01 0.01 0.00 0.00 0.01 0.00 0.00 0.00 0.01 0.01 0.00 0.00
0.04 0.02 0.01 0.00 0.00 0.00 0.00 0.00 0.00 0.00 0.00 0.00 0.00 0.00 0.00 0.00 0.01 0.01 0.01 0.02 0.02 0.02 0.02 0.02 0.01 0.02 0.01 0.01 0.01 0.01 0.01 0.02 0.02 0.02 0.02 0.02 0.01 0.01 0.01 0.01 0.00 0.00 0.00 0.01 0.01 0.02 0.01 0.00 0.00
0.04 0.02 0.01 0.01 0.00 0.00 0.00 0.00 0.00 0.00 0.00 0.00 0.00 0.00 0.01 0.01 0.02 0.01 0.01 0.01 0.02 0.02 0.02 0.02 0.02 0.02 0.02 0.01 0.01 0.01 0.01 0.01 0.01 0.01 0.01 0.02 0.02 0.01 0.01 0.01 0.01 0.00 0.01 0.01 0.02 0.02 0.01 0.00 0.00
0.03 0.02 0.01 0.01 0.01 0.00 0.00 0.00 0.00 0.00 0.00 0.00 0.00 0.00 0.01 0.02 0.02 0.02 0.01 0.01 0.01 0.02 0.03 0.02 0.02 0.02 0.02 0.02 0.01 0.01 0.01 0.01 0.01 0.01 0.01 0.01 0.02 0.02 0.01 0.01 0.01 0.01 0.01 0.01 0.01 0.01 0.00 0.00 0.00
0.03 0.02 0.01 0.01 0.01 0.01 0.01 0.00 0.00 0.00 0.00 0.00 0.00 0.00 0.01 0.01 0.02 0.01 0.01 0.02 0.03 0.03 0.03 0.03 0.02 0.03 0.03 0.02 0.02 0.01 0.01 0.02 0.01 0.01 0.01 0.01 0.02 0.02 0.02 0.02 0.01 0.01 0.00 0.00 0.00 0.00 0.00 0.00 0.00
0.04 0.02 0.01 0.00 0.01 0.01 0.01 0.00 0.00 0.00 0.00 0.00 0.01 0.01 0.01 0.01 0.01 0.02 0.02 0.02 0.03 0.03 0.03 0.02 0.02 0.03 0.04 0.03 0.03 0.02 0.01 0.01 0.02 0.02 0.01 0.01 0.02 0.03 0.03 0.02 0.02 0.02 0.01 0.00 0.00 0.00 0.01 0.00 0.00
0.03 0.04 0.02 0.01 0.01 0.01 0.01 0.01 0.00 0.00 0.00 0.01 0.01 0.02 0.02 0.02 0.02 0.02 0.02 0.02 0.02 0.03 0.04 0.03 0.02 0.03 0.04 0.05 0.04 0.03 0.02 0.02 0.02 0.02 0.02 0.02 0.02 0.05 0.05 0.04 0.03 0.04 0.02 0.01 0.01 0.01 0.01 0.01 0.01
0.03 0.05 0.04 0.03 0.02 0.02 0.02 0.03 0.02 0.01 0.00 0.01 0.01 0.02 0.02 0.02 0.03 0.03 0.03 0.02 0.02 0.03 0.04 0.04 0.04 0.03 0.03 0.03 0.04 0.04 0.03 0.03 0.03 0.02 0.02 0.02 0.02 0.04 0.07 0.06 0.05 0.04 0.04 0.04 0.03 0.01 0.01 0.01 0.01
0.04 0.06 0.06 0.04 0.03 0.02 0.02 0.04 0.03 0.01 0.01 0.01 0.01 0.02 0.02 0.02 0.02 0.04 0.04 0.04 0.04 0.04 0.04 0.04 0.05 0.03 0.03 0.03 0.03 0.03 0.03 0.03 0.04 0.03 0.03 0.02 0.03 0.04 0.07 0.08 0.07 0.07 0.07 0.04 0.03 0.02 0.01 0.01 0.01
0.05 0.05 0.06 0.03 0.03 0.02 0.01 0.03 0.03 0.01 0.01 0.01 0.01 0.02 0.02 0.02 0.02 0.03 0.04 0.05 0.06 0.06 0.05 0.05 0.04 0.04 0.03 0.03 0.03 0.04 0.05 0.04 0.03 0.03 0.03 0.03 0.04 0.04 0.05 0.09 0.10 0.11 0.09 0.05 0.03 0.02 0.01 0.01 0.01
0.03 0.03 0.04 0.03 0.02 0.02 0.01 0.01 0.03 0.02 0.01 0.01 0.01 0.02 0.02 0.02 0.02 0.02 0.03 0.06 0.08 0.08 0.07 0.06 0.06 0.06 0.07 0.06 0.06 0.06 0.06 0.05 0.04 0.04 0.04 0.04 0.04 0.05 0.05 0.08 0.12 0.13 0.11 0.07 0.04 0.03 0.02 0.02 0.02
0.02 0.01 0.02 0.02 0.02 0.02 0.02 0.01 0.02 0.03 0.01 0.01 0.01 0.02 0.02 0.02 0.03 0.03 0.04 0.05 0.06 0.07 0.07 0.08 0.07 0.06 0.06 0.05 0.04 0.04 0.04 0.05 0.04 0.04 0.05 0.05 0.06 0.06 0.06 0.08 0.11 0.13 0.12 0.11 0.08 0.05 0.03 0.03 0.03
0.02 0.01 0.01 0.02 0.01 0.02 0.02 0.01 0.01 0.03 0.02 0.01 0.01 0.01 0.01 0.02 0.02 0.02 0.03 0.04 0.05 0.05 0.06 0.08 0.08 0.07 0.06 0.05 0.05 0.05 0.07 0.07 0.07 0.06 0.05 0.05 0.06 0.05 0.04 0.05 0.08 0.10 0.11 0.12 0.11 0.08 0.06 0.04 0.03
0.03 0.01 0.01 0.01 0.02 0.02 0.01 0.01 0.01 0.02 0.02 0.01 0.01 0.01 0.01 0.01 0.01 0.01 0.01 0.02 0.03 0.04 0.05 0.06 0.07 0.07 0.07 0.08 0.09 0.10 0.10 0.09 0.07 0.05 0.03 0.03 0.03 0.03 0.04 0.05 0.08 0.10 0.11 0.10 0.10 0.10 0.07 0.05 0.04
0.04 0.01 0.01 0.01 0.02 0.03 0.02 0.02 0.01 0.01 0.02 0.01 0.01 0.01 0.01 0.01 0.01 0.01 0.01 0.01 0.02 0.02 0.04 0.04 0.06 0.07 0.08 0.10 0.10 0.08 0.06 0.05 0.03 0.04 0.04 0.03 0.03 0.03 0.03 0.04 0.05 0.08 0.10 0.10 0.09 0.09 0.08 0.04 0.03
0.04 0.02 0.01 0.02 0.02 0.02 0.02 0.01 0.01 0.01 0.01 0.01 0.01 0.00 0.01 0.01 0.01 0.01 0.01 0.01 0.02 0.03 0.03 0.04 0.05 0.05 0.07 0.08 0.08 0.09 0.07 0.05 0.05 0.05 0.05 0.04 0.04 0.03 0.03 0.04 0.04 0.04 0.07 0.08 0.08 0.07 0.07 0.05 0.03
0.04 0.03 0.02 0.03 0.03 0.03 0.01 0.01 0.01 0.01 0.01 0.01 0.00 0.00 0.00 0.01 0.01 0.01 0.01 0.02 0.02 0.03 0.04 0.04 0.04 0.04 0.04 0.05 0.08 0.09 0.07 0.06 0.05 0.05 0.05 0.06 0.05 0.04 0.03 0.03 0.03 0.03 0.03 0.06 0.07 0.06 0.06 0.05 0.04
0.04 0.05 0.08 0.09 0.08 0.04 0.01 0.00 0.01 0.01 0.00 0.00 0.00 0.00 0.00 0.00 0.00 0.00 0.01 0.02 0.02 0.02 0.02 0.03 0.04 0.04 0.03 0.04 0.06 0.07 0.07 0.09 0.09 0.08 0.06 0.06 0.06 0.05 0.05 0.05 0.04 0.04 0.03 0.04 0.05 0.06 0.05 0.04 0.03
0.04 0.04 0.05 0.04 0.04 0.02 0.01 0.01 0.01 0.00 0.00 0.00 0.00 0.00 0.00 0.00 0.00 0.00 0.00 0.01 0.01 0.01 0.01 0.02 0.03 0.04 0.04 0.04 0.05 0.07 0.07 0.07 0.09 0.09 0.08 0.07 0.06 0.06 0.06 0.07 0.07 0.05 0.04 0.04 0.04 0.04 0.05 0.04 0.03
0.03 0.03 0.03 0.02 0.01 0.01 0.01 0.01 0.01 0.00 0.00 0.00 0.00 0.00 0.00 0.00 0.00 0.00 0.00 0.00 0.01 0.01 0.01 0.01 0.02 0.03 0.03 0.04 0.05 0.06 0.06 0.06 0.06 0.08 0.08 0.08 0.07 0.06 0.05 0.05 0.05 0.04 0.03 0.04 0.04 0.04 0.04 0.04 0.04
0.02 0.02 0.03 0.03 0.02 0.01 0.01 0.01 0.01 0.00 0.00 0.00 0.00 0.00 0.00 0.00 0.00 0.00 0.00 0.00 0.00 0.01 0.01 0.01 0.01 0.02 0.03 0.03 0.04 0.06 0.06 0.06 0.05 0.05 0.07 0.07 0.06 0.05 0.04 0.04 0.03 0.03 0.02 0.02 0.04 0.04 0.03 0.03 0.03
0.02 0.02 0.03 0.03 0.02 0.01 0.01 0.01 0.01 0.01 0.01 0.00 0.00 0.00 0.00 0.00 0.00 0.00 0.00 0.00 0.00 0.01 0.02 0.02 0.02 0.02 0.02 0.02 0.03 0.03 0.04 0.06 0.07 0.06 0.05 0.05 0.05 0.05 0.06 0.05 0.04 0.04 0.02 0.02 0.02 0.03 0.04 0.03 0.03
0.02 0.02 0.02 0.02 0.02 0.01 0.01 0.01 0.01 0.01 0.01 0.01 0.01 0.01 0.00 0.00 0.00 0.00 0.00 0.00 0.00 0.01 0.02 0.01 0.02 0.03 0.02 0.02 0.02 0.03 0.03 0.04 0.04 0.04 0.04 0.04 0.03 0.04 0.04 0.04 0.05 0.04 0.04 0.03 0.02 0.03 0.04 0.04 0.04
MSLP
1012.64 1013.37 1014.23 1015.11 1015.88 1016.42 1016.67 1016.60 1016.27 1015.78 1015.23 1014.75 1014.40 1014.21 1014.14 1014.14 1014.14 1014.08 1013.92 1013.69 1013.44 1013.25 1013.19 1013.31 1013.61 1014.07 1014.61 1015.15 1015.62 1015.98 1016.22 1016.37 1016.48 1016.60 1016.78 1017.03 1017.34 1017.69 1018.03 1018.31 1018.51 1018.64 1018.71 1018.76 1018.81 1018.90 1019.04 1019.21 1019.41
1013.05 1013.84 1014.73 1015.57 1016.24 1016.63 1016.70 1016.44 1015.94 1015.29 1014.63 1014.07 1013.67 1013.46 1013.40 1013.43 1013.46 1013.44 1013.35 1013.20 1013.04 1012.95 1012.99 1013.20 1013.60 1014.13 1014.73 1015.32 1015.84 1016.23 1016.49 1016.66 1016.78 1016.91 1017.09 1017.34 1017.64 1017.98 1018.30 1018.58 1018.78 1018.91 1019.00 1019.06 1019.13 1019.24 1019.39 1019.58 1019.78
1013.50 1014.31 1015.14 1015.88 1016.39 1016.61 1016.50 1016.08 1015.45 1014.71 1014.01 1013.44 1013.06 1012.88 1012.86 1012.92 1013.00 1013.02 1012.98 1012.90 1012.81 1012.80 1012.93 1013.22 1013.68 1014.26 1014.90 1015.51 1016.04 1016.44 1016.72 1016.89 1017.02 1017.16 1017.34 1017.58 1017.88 1018.20 1018.51 1018.78 1018.99 1019.14 1019.25 1019.34 1019.44 1019.57 1019.75 1019.95 1020.17
1013.97 1014.73 1015.45 1016.03 1016.36 1016.39 1016.10 1015.57 1014.86 1014.11 1013.44 1012.93 1012.62 1012.51 1012.56 1012.67 1012.80 1012.87 1012.88 1012.84 1012.82 1012.88 1013.06 1013.40 1013.89 1014.49 1015.12 1015.72 1016.23 1016.62 1016.89 1017.07 1017.21 1017.35 1017.54 1017.78 1018.07 1018.38 1018.69 1018.96 1019.18 1019.35 1019.49 1019.61 1019.75 1019.92 1020.12 1020.34 1020.57
1014.41 1015.07 1015.65 1016.04 1016.17 1016.01 1015.59 1014.97 1014.25 1013.54 1012.95 1012.55 1012.36 1012.36 1012.48 1012.67 1012.84 1012.95 1013.01 1013.02 1013.05 1013.16 1013.38 1013.74 1014.24 1014.81 1015.41 1015.96 1016.43 1016.78 1017.03 1017.21 1017.35 1017.51 1017.71 1017.96 1018.26 1018.57 1018.87 1019.15 1019.38 1019.57 1019.74 1019.91 1020.09 1020.29 1020.51 1020.75 1020.99
1014.77 1015.32 1015.73 1015.93 1015.87 1015.55 1015.03 1014.37 1013.67 1013.06 1012.59 1012.33 1012.26 1012.37 1012.58 1012.82 1013.04 1013.19 1013.29 1013.35 1013.44 1013.58 1013.84 1014.21 1014.68 1015.21 1015.74 1016.22 1016.62 1016.93 1017.16 1017.33 1017.49 1017.68 1017.90 1018.18 1018.48 1018.80 1019.10 1019.38 1019.62 1019.82 1020.02 1020.21 1020.42 1020.65 1020.90 1021.15 1021.38
1015.03 1015.46 1015.72 1015.74 1015.52 1015.08 1014.49 1013.84 1013.20 1012.69 1012.36 1012.23 1012.28 1012.48 1012.75 1013.03 1013.28 1013.47 1013.61 1013.72 1013.86 1014.05 1014.34 1014.71 1015.15 1015.62 1016.08 1016.48 1016.82 1017.08 1017.28 1017.46 1017.65 1017.87 1018.13 1018.44 1018.76 1019.08 1019.38 1019.65 1019.88 1020.10 1020.30 1020.52 1020.75 1021.00 1021.25 1021.50 1021.73
1015.20 1015.52 1015.63 1015.51 1015.18 1014.67 1014.06 1013.43 1012.88 1012.47 1012.26 1012.23 1012.36 1012.61 1012.91 1013.20 1013.46 1013.67 1013.84 1014.01 1014.21 1014.46 1014.78 1015.16 1015.58 1016.01 1016.39 1016.72 1016.99 1017.21 1017.40 1017.60 1017.82 1018.09 1018.40 1018.74 1019.08 1019.41 1019.70 1019.95 1020.17 1020.37 1020.57 1020.79 1021.03 1021.29 1021.55 1021.79 1022.01
1015.28 1015.51 1015.51 1015.30 1014.89 1014.35 1013.75 1013.18 1012.72 1012.41 1012.28 1012.32 1012.48 1012.73 1013.01 1013.28 1013.52 1013.74 1013.94 1014.16 1014.42 1014.74 1015.11 1015.51 1015.93 1016.31 1016.64 1016.92 1017.14 1017.33 1017.52 1017.73 1018.00 1018.32 1018.67 1019.04 1019.40 1019.73 1020.01 1020.23 1020.43 1020.61 1020.80 1021.01 1021.25 1021.51 1021.77 1022.01 1022.21
1015.31 1015.46 1015.40 1015.13 1014.70 1014.17 1013.61 1013.11 1012.73 1012.50 1012.42 1012.47 1012.63 1012.83 1013.05 1013.26 1013.46 1013.66 1013.88 1014.15 1014.48 1014.86 1015.29 1015.73 1016.15 1016.52 1016.82 1017.05 1017.24 1017.42 1017.61 1017.85 1018.16 1018.52 1018.91 1019.31 1019.68 1020.00 1020.26 1020.46 1020.63 1020.79 1020.97 1021.17 1021.40 1021.66 1021.91 1022.14 1022.34
1015.32 1015.42 1015.31 1015.03 1014.61 1014.12 1013.63 1013.21 1012.90 1012.72 1012.67 1012.71 1012.81 1012.94 1013.07 1013.20 1013.34 1013.51 1013.73 1014.03 1014.41 1014.86 1015.34 1015.82 1016.26 1016.62 1016.91 1017.12 1017.30 1017.46 1017.67 1017.93 1018.27 1018.66 1019.08 1019.50 1019.87 1020.18 1020.42 1020.61 1020.75 1020.90 1021.06 1021.26 1021.50 1021.75 1022.00 1022.22 1022.40
1015.35 1015.41 1015.29 1015.01 1014.62 1014.20 1013.79 1013.44 1013.20 1013.06 1013.02 1013.02 1013.06 1013.10 1013.13 1013.16 1013.23 1013.35 1013.56 1013.88 1014.29 1014.78 1015.30 1015.81 1016.27 1016.64 1016.92 1017.13 1017.30 1017.47 1017.68 1017.96 1018.31 1018.72 1019.15 1019.57 1019.94 1020.24 1020.47 1020.64 1020.79 1020.93 1021.10 1021.30 1021.54 1021.80 1022.04 1022.26 1022.42
1015.42 1015.45 1015.32 1015.07 1014.74 1014.38 1014.05 1013.78 1013.60 1013.50 1013.44 1013.42 1013.38 1013.34 1013.27 1013.22 1013.21 1013.28 1013.46 1013.76 1014.18 1014.68 1015.22 1015.74 1016.21 1016.58 1016.87 1017.08 1017.25 1017.43 1017.65 1017.93 1018.28 1018.68 1019.10 1019.51 1019.87 1020.17 1020.40 1020.58 1020.74 1020.89 1021.08 1021.30 1021.55 1021.81 1022.06 1022.26 1022.40
1015.54 1015.55 1015.43 1015.21 1014.93 1014.65 1014.39 1014.19 1014.06 1013.98 1013.92 1013.86 1013.78 1013.66 1013.53 1013.40 1013.33 1013.34 1013.47 1013.74 1014.12 1014.60 1015.11 1015.62 1016.08 1016.46 1016.75 1016.97 1017.16 1017.34 1017.56 1017.84 1018.18 1018.56 1018.96 1019.35 1019.69 1019.99 1020.22 1020.42 1020.61 1020.80 1021.01 1021.26 1021.52 1021.79 1022.04 1022.23 1022.35
1015.73 1015.73 1015.62 1015.43 1015.20 1014.98 1014.78 1014.63 1014.53 1014.46 1014.41 1014.33 1014.21 1014.05 1013.87 1013.70 1013.57 1013.52 1013.59 1013.79 1014.11 1014.53 1014.99 1015.46 1015.89 1016.26 1016.56 1016.80 1017.01 1017.21 1017.44 1017.71 1018.02 1018.38 1018.74 1019.10 1019.42 1019.71 1019.96 1020.19 1020.41 1020.64 1020.90 1021.17 1021.45 1021.73 1021.97 1022.15 1022.26
1015.96 1015.97 1015.88 1015.73 1015.55 1015.37 1015.21 1015.08 1014.99 1014.93 1014.85 1014.76 1014.62 1014.45 1014.25 1014.04 1013.87 1013.78 1013.78 1013.90 1014.12 1014.44 1014.82 1015.22 1015.61 1015.97 1016.28 1016.54 1016.78 1017.02 1017.26 1017.53 1017.82 1018.14 1018.47 1018.79 1019.09 1019.37 1019.64 1019.89 1020.15 1020.42 1020.71 1021.02 1021.32 1021.59 1021.83 1022.00 1022.10
1016.23 1016.26 1016.21 1016.10 1015.96 1015.81 1015.66 1015.54 1015.43 1015.33 1015.23 1015.11 1014.96 1014.78 1014.58 1014.36 1014.17 1014.03 1013.96 1013.98 1014.10 1014.30 1014.57 1014.89 1015.23 1015.57 1015.89 1016.19 1016.48 1016.75 1017.02 1017.29 1017.57 1017.86 1018.14 1018.43 1018.70 1018.98 1019.25 1019.53 1019.82 1020.13 1020.45 1020.77 1021.08 1021.36 1021.59 1021.76 1021.86
1016.52 1016.59 1016.60 1016.55 1016.44 1016.31 1016.15 1015.99 1015.83 1015.67 1015.51 1015.36 1015.18 1015.00 1014.80 1014.60 1014.40 1014.22 1014.09 1014.02 1014.02 1014.10 1014.25 1014.48 1014.75 1015.07 1015.41 1015.75 1016.08 1016.40 1016.71 1017.00 1017.27 1017.52 1017.77 1018.01 1018.26 1018.52 1018.80 1019.10 1019.42 1019.75 1020.09 1020.43 1020.74 1021.02 1021.25 1021.43 1021.54
1016.81 1016.95 1017.03 1017.04 1016.98 1016.85 1016.66 1016.44 1016.19 1015.94 1015.71 1015.49 1015.28 1015.09 1014.90 1014.71 1014.52 1014.33 1014.14 1013.99 1013.88 1013.84 1013.88 1014.01 1014.22 1014.51 1014.85 1015.22 1015.61 1015.98 1016.32 1016.62 1016.89 1017.12 1017.34 1017.54 1017.76 1018.01 1018.28 1018.59 1018.93 1019.28 1019.64 1019.98 1020.30 1020.58 1020.81 1021.00 1021.14
1017.08 1017.31 1017.47 1017.56 1017.54 1017.41 1017.19 1016.88 1016.53 1016.16 1015.82 1015.52 1015.27 1015.06 1014.89 1014.73 1014.55 1014.37 1014.16 1013.94 1013.75 1013.60 1013.53 1013.56 1013.70 1013.95 1014.28 1014.67 1015.09 1015.49 1015.86 1016.18 1016.44 1016.65 1016.83 1017.01 1017.20 1017.43 1017.70 1018.02 1018.36 1018.73 1019.10 1019.45 1019.77 1020.05 1020.29 1020.50 1020.67
1017.33 1017.64 1017.90 1018.06 1018.09 1017.97 1017.70 1017.31 1016.84 1016.35 1015.89 1015.49 1015.19 1014.97 1014.82 1014.69 1014.57 1014.41 1014.20 1013.96 1013.70 1013.47 1013.31 1013.24 1013.30 1013.49 1013.78 1014.16 1014.58 1014.99 1015.36 1015.67 1015.92 1016.11 1016.26 1016.41 1016.58 1016.80 1017.07 1017.39 1017.75 1018.13 1018.50 1018.86 1019.18 1019.46 1019.72 1019.95 1020.16
1017.55 1017.93 1018.28 1018.52 1018.60 1018.48 1018.17 1017.70 1017.12 1016.51 1015.94 1015.46 1015.11 1014.89 1014.76 1014.69 1014.63 1014.52 1014.35 1014.11 1013.83 1013.54 1013.29 1013.13 1013.10 1013.20 1013.43 1013.76 1014.14 1014.52 1014.87 1015.16 1015.38 1015.53 1015.66 1015.79 1015.94 1016.15 1016.42 1016.74 1017.11 1017.50 1017.88 1018.24 1018.57 1018.87 1019.13 1019.38 1019.63
1017.75 1018.18 1018.60 1018.90 1019.02 1018.92 1018.58 1018.04 1017.37 1016.66 1016.00 1015.46 1015.08 1014.86 1014.78 1014.78 1014.80 1014.78 1014.67 1014.46 1014.17 1013.84 1013.53 1013.29 1013.16 1013.16 1013.30 1013.54 1013.84 1014.15 1014.45 1014.68 1014.85 1014.98 1015.07 1015.18 1015.32 1015.52 1015.78 1016.12 1016.50 1016.89 1017.28 1017.65 1017.98 1018.28 1018.55 1018.82 1019.09
1017.97 1018.42 1018.86 1019.20 1019.35 1019.25 1018.89 1018.31 1017.58 1016.80 1016.09 1015.51 1015.12 1014.93 1014.91 1014.99 1015.11 1015.18 1015.14 1014.99 1014.73 1014.38 1014.02 1013.70 1013.47 1013.36 1013.38 1013.50 1013.70 1013.92 1014.13 1014.30 1014.41 1014.49 1014.55 1014.63 1014.76 1014.95 1015.22 1015.55 1015.93 1016.33 1016.72 1017.09 1017.42 1017.72 1018.00 1018.27 1018.55
1018.23 1018.66 1019.10 1019.44 1019.58 1019.47 1019.10 1018.49 1017.73 1016.92 1016.18 1015.60 1015.23 1015.09 1015.13 1015.30 1015.51 1015.68 1015.74 1015.65 1015.42 1015.08 1014.69 1014.30 1013.98 1013.76 1013.66 1013.66 1013.74 1013.85 1013.96 1014.05 1014.10 1014.13 1014.16 1014.22 1014.32 1014.50 1014.76 1015.08 1015.45 1015.83 1016.21 1016.57 1016.90 1017.19 1017.46 1017.73 1018.01
1018.58 1018.94 1019.33 1019.63 1019.74 1019.60 1019.21 1018.58 1017.81 1017.01 1016.28 1015.72 1015.39 1015.29 1015.41 1015.66 1015.95 1016.21 1016.34 1016.32 1016.14 1015.82 1015.41 1014.98 1014.59 1014.28 1014.07 1013.96 1013.92 1013.92 1013.94 1013.95 1013.94 1013.93 1013.93 1013.95 1014.04 1014.19 1014.42 1014.72 1015.05 1015.41 1015.76 1016.10 1016.40 1016.69 1016.95 1017.22 1017.49
1019.05 1019.31 1019.60 1019.81 1019.85 1019.66 1019.22 1018.58 1017.82 1017.03 1016.34 1015.82 1015.54 1015.50 1015.67 1015.98 1016.34 1016.66 1016.86 1016.90 1016.76 1016.47 1016.07 1015.62 1015.19 1014.82 1014.53 1014.32 1014.19 1014.11 1014.05 1014.00 1013.95 1013.90 1013.86 1013.86 1013.92 1014.04 1014.22 1014.46 1014.75 1015.05 1015.36 1015.65 1015.93 1016.20 1016.46 1016.72 1016.99
1019.65 1019.78 1019.93 1020.01 1019.93 1019.65 1019.16 1018.50 1017.74 1016.99 1016.34 1015.87 1015.64 1015.65 1015.86 1016.21 1016.61 1016.97 1017.21 1017.29 1017.19 1016.93 1016.56 1016.12 1015.68 1015.28 1014.95 1014.69 1014.50 1014.36 1014.26 1014.17 1014.08 1014.01 1013.95 1013.92 1013.94 1014.01 1014.14 1014.31 1014.52 1014.76 1015.00 1015.24 1015.49 1015.74 1015.99 1016.26 1016.55
1020.36 1020.34 1020.32 1020.23 1020.00 1019.59 1019.03 1018.33 1017.58 1016.86 1016.26 1015.86 1015.67 1015.72 1015.96 1016.32 1016.73 1017.10 1017.35 1017.45 1017.39 1017.17 1016.84 1016.44 1016.02 1015.62 1015.28 1015.01 1014.80 1014.64 1014.51 1014.40 1014.31 1014.22 1014.15 1014.10 1014.08 1014.10 1014.15 1014.25 1014.37 1014.52 1014.69 1014.88 1015.08 1015.31 1015.57 1015.86 1016.18
1021.13 1020.94 1020.73 1020.43 1020.02 1019.47 1018.81 1018.07 1017.33 1016.65 1016.11 1015.77 1015.64 1015.72 1015.97 1016.33 1016.72 1017.08 1017.33 1017.44 1017.40 1017.22 1016.94 1016.58 1016.21 1015.85 1015.53 1015.27 1015.06 1014.90 1014.77 1014.66 1014.57 1014.48 1014.40 1014.33 1014.28 1014.25 1014.23 1014.25 1014.28 1014.34 1014.44 1014.56 1014.74 1014.95 1015.22 1015.54 1015.90
Thickness
5707 5709 5711 5705 5690 5676 5682 5698 5711 5719 5726 5734 5739 5739 5738 5737 5735 5737 5751 5759 5760 5757 5754 5753 5751 5749 5748 5747 5746 5745 5744 5743 5742 5741 5740 5739 5738 5737 5736 5735 5735 5734 5733 5732 5731 5730 5729 5728 5727
5700 5702 5698 5688 5673 5666 5679 5698 5709 5721 5731 5733 5735 5737 5737 5738 5744 5747 5750 5754 5756 5754 5752 5750 5748 5747 5745 5744 5743 5741 5740 5739 5739 5738 5737 5736 5735 5734 5733 5732 5731 5730 5729 5729 5728 5726 5725 5724 5723
5693 5693 5683 5673 5667 5671 5688 5704 5711 5721 5727 5730 5728 5731 5734 5736 5742 5745 5750 5752 5752 5750 5748 5746 5745 5743 5742 5741 5739 5738 5737 5736 5735 5735 5734 5733 5731 5730 5730 5729 5728 5727 5726 5725 5724 5722 5721 5720 5719
5682 5676 5670 5664 5669 5679 5693 5706 5710 5714 5721 5725 5725 5723 5730 5738 5742 5745 5748 5748 5747 5745 5744 5742 5741 5739 5738 5737 5736 5735 5734 5733 5732 5731 5730 5729 5728 5727 5726 5725 5724 5723 5722 5721 5720 5718 5717 5716 5715
5669 5662 5657 5656 5668 5681 5691 5701 5708 5710 5714 5717 5719 5718 5723 5733 5740 5743 5743 5743 5742 5741 5739 5738 5737 5735 5734 5733 5732 5731 5730 5729 5728 5727 5726 5726 5724 5723 5722 5721 5720 5719 5718 5717 5716 5714 5713 5712 5711
5652 5649 5644 5651 5666 5679 5689 5697 5702 5704 5707 5711 5712 5713 5718 5727 5733 5735 5737 5737 5737 5736 5735 5733 5732 5731 5730 5729 5727 5726 5725 5725 5724 5723 5722 5721 5720 5719 5718 5718 5717 5716 5714 5713 5712 5711 5709 5708 5707
5640 5639 5642 5651 5660 5672 5686 5692 5695 5697 5699 5704 5708 5707 5713 5720 5726 5729 5730 5730 5730 5730 5730 5728 5727 5726 5725 5724 5723 5722 5721 5720 5719 5719 5718 5717 5716 5715 5714 5713 5712 5711 5710 5709 5708 5707 5706 5704 5703
5635 5632 5636 5643 5653 5666 5681 5687 5692 5692 5694 5700 5704 5701 5705 5715 5720 5722 5722 5722 5723 5723 5723 5723 5722 5721 5720 5719 5718 5717 5716 5716 5715 5714 5713 5712 5711 5710 5710 5709 5708 5707 5706 5705 5704 5702 5701 5700 5698
5627 5620 5627 5639 5649 5662 5673 5678 5683 5688 5688 5692 5697 5702 5708 5712 5714 5714 5713 5713 5714 5716 5717 5717 5717 5716 5715 5714 5713 5712 5711 5711 5710 5709 5708 5707 5706 5706 5705 5704 5704 5703 5701 5700 5699 5698 5697 5695 5694
5612 5611 5627 5641 5649 5655 5663 5668 5672 5676 5677 5681 5687 5695 5701 5704 5706 5706 5707 5707 5708 5709 5710 5712 5711 5711 5710 5709 5708 5707 5706 5706 5705 5704 5703 5702 5701 5700 5700 5699 5698 5698 5697 5695 5694 5693 5692 5690 5689
5605 5610 5624 5634 5643 5649 5654 5658 5664 5667 5667 5675 5681 5687 5692 5695 5697 5699 5701 5702 5704 5704 5705 5706 5706 5706 5705 5704 5703 5702 5701 5700 5700 5699 5698 5697 5696 5695 5694 5694 5693 5692 5692 5690 5689 5688 5687 5685 5684
5596 5605 5616 5624 5633 5639 5643 5648 5652 5658 5666 5674 5679 5683 5685 5686 5689 5692 5694 5695 5696 5697 5698 5700 5700 5700 5699 5699 5698 5697 5696 5695 5694 5694 5693 5692 5691 5690 5689 5688 5688 5687 5686 5685 5684 5682 5681 5680 5679
5588 5596 5606 5613 5620 5627 5632 5636 5642 5649 5658 5665 5670 5673 5676 5679 5681 5684 5686 5688 5689 5690 5692 5693 5694 5694 5693 5693 5692 5691 5690 5690 5689 5688 5688 5687 5686 5685 5684 5683 5682 5682 5681 5680 5679 5677 5676 5674 5673
5580 5586 5593 5601 5608 5616 5621 5626 5632 5640 5648 5654 5658 5662 5666 5670 5674 5675 5677 5679 5681 5683 5684 5686 5687 5687 5687 5687 5687 5686 5685 5684 5684 5683 5683 5682 5682 5681 5679 5678 5677 5676 5676 5675 5674 5672 5670 5669 5668
5571 5574 5580 5588 5597 5605 5611 5614 5621 5630 5636 5642 5646 5651 5655 5659 5663 5666 5669 5671 5674 5675 5677 5678 5680 5680 5681 5681 5680 5680 5679 5679 5678 5678 5677 5677 5676 5675 5674 5673 5672 5671 5669 5669 5668 5666 5664 5663 5661
5559 5559 5562 5575 5586 5594 5596 5598 5612 5618 5625 5629 5633 5638 5643 5648 5652 5656 5659 5662 5665 5667 5669 5670 5672 5672 5673 5674 5674 5673 5673 5672 5672 5672 5671 5671 5670 5670 5669 5668 5666 5665 5664 5663 5662 5660 5658 5656 5655
5542 5543 5550 5562 5575 5582 5584 5588 5600 5607 5613 5617 5621 5627 5632 5637 5641 5645 5649 5652 5655 5658 5660 5662 5663 5664 5665 5666 5666 5666 5666 5665 5665 5665 5665 5664 5664 5663 5663 5662 5661 5660 5658 5656 5656 5654 5652 5650 5649
5534 5537 5542 5549 5563 5570 5570 5577 5588 5595 5601 5605 5610 5615 5621 5626 5631 5636 5640 5643 5645 5648 5651 5653 5654 5656 5656 5656 5656 5657 5657 5658 5658 5658 5658 5658 5657 5657 5657 5656 5654 5653 5651 5650 5649 5648 5646 5644 5642
5530 5532 5535 5544 5555 5560 5561 5567 5577 5583 5588 5593 5598 5603 5609 5615 5620 5625 5629 5632 5635 5638 5640 5643 5645 5646 5648 5648 5648 5648 5648 5649 5650 5650 5650 5650 5650 5650 5650 5649 5648 5647 5645 5644 5642 5641 5639 5637 5635
5523 5524 5529 5538 5548 5551 5550 5556 5567 5572 5578 5584 5589 5593 5598 5603 5609 5615 5619 5622 5626 5628 5631 5634 5636 5638 5640 5642 5642 5642 5641 5641 5641 5642 5642 5643 5643 5643 5642 5642 5641 5640 5639 5637 5635 5634 5632 5630 5628
5516 5519 5524 5530 5537 5540 5541 5546 5555 5563 5568 5574 5578 5584 5588 5594 5599 5604 5608 5612 5615 5618 5621 5625 5627 5629 5632 5633 5633 5632 5631 5631 5631 5632 5633 5634 5635 5635 5635 5634 5633 5633 5632 5630 5629 5627 5626 5623 5620
5508 5518 5524 5527 5526 5523 5532 5529 5543 5550 5557 5563 5568 5572 5577 5583 5588 5593 5599 5602 5606 5609 5612 5615 5617 5619 5621 5623 5624 5624 5625 5624 5625 5625 5625 5626 5626 5626 5626 5626 5626 5625 5624 5624 5622 5621 5619 5617 5614
5504 5513 5517 5517 5514 5512 5518 5516 5529 5539 5546 5555 5560 5563 5568 5573 5578 5584 5589 5593 5596 5599 5602 5605 5607 5609 5611 5613 5614 5616 5616 5616 5615 5616 5615 5616 5616 5617 5617 5617 5617 5617 5616 5616 5614 5613 5611 5610 5608
5500 5504 5504 5501 5501 5500 5507 5509 5518 5527 5540 5548 5553 5556 5559 5563 5569 5574 5579 5582 5585 5587 5590 5593 5595 5598 5600 5602 5604 5605 5606 5606 5606 5605 5605 5605 5605 5606 5607 5607 5608 5608 5607 5606 5605 5604 5602 5601 5600
5493 5491 5485 5484 5484 5489 5497 5502 5513 5528 5534 5539 5545 5548 5550 5553 5557 5563 5568 5571 5574 5577 5580 5582 5585 5586 5589 5591 5592 5594 5595 5596 5596 5596 5595 5595 5595 5596 5596 5597 5597 5598 5597 5597 5596 5594 5593 5592 5591
5480 5484 5480 5480 5479 5479 5485 5491 5510 5521 5525 5529 5534 5538 5540 5543 5547 5553 5557 5560 5563 5566 5568 5571 5574 5575 5577 5579 5581 5583 5584 5585 5586 5585 5585 5585 5586 5586 5586 5586 5586 5587 5587 5586 5586 5584 5583 5582 5581
5472 5472 5474 5467 5463 5467 5473 5482 5500 5514 5517 5521 5524 5527 5529 5532 5536 5540 5545 5550 5553 5555 5557 5560 5562 5564 5566 5568 5570 5571 5572 5573 5573 5574 5574 5575 5575 5575 5575 5575 5575 5575 5575 5575 5575 5574 5572 5571 5570
5467 5466 5461 5462 5464 5470 5473 5478 5493 5505 5510 5513 5516 5517 5520 5523 5525 5529 5533 5537 5541 5544 5546 5548 5550 5552 5553 5556 5557 5559 5560 5561 5561 5562 5563 5563 5563 5563 5563 5564 5564 5564 5564 5564 5564 5563 5562 5561 5560
5454 5456 5453 5449 5454 5459 5465 5481 5494 5497 5501 5503 5507 5509 5511 5513 5515 5518 5521 5525 5529 5531 5534 5536 5538 5539 5541 5543 5545 5546 5547 5548 5550 5551 5551 5551 5551 5551 5552 5552 5552 5552 5553 5553 5553 5552 5551 5550 5548
5447 5447 5447 5452 5445 5441 5448 5471 5488 5486 5488 5491 5494 5498 5500 5502 5504 5507 5509 5512 5516 5519 5522 5524 5525 5526 5528 5530 5532 5533 5535 5536 5537 5538 5539 5539 5539 5540 5540 5540 5540 5541 5541 5541 5541 5540 5540 5539 5537